Location: Atlantic Beach
(40.5890°N, 73.7290°W)
Time: 13:43:35
(UTC+00:00)

Cosmos 1812 Rocket - Pass Details

Date: 29 October 2020
Orbit: 605 x 632 km, 82.5° (Epoch: 01 December)

Event Time Altitude Azimuth Distance (km) Brightness Sun altitude
Rises 23:47:38 0° 194° (SSW) 2,890 7.2 -22.0°
Reaches altitude 10° 23:49:53 10° 198° (SSW) 1,984 6.3 -22.4°
Maximum altitude 23:54:14 63° 279° (W) 694 4.0 -23.3°
Drops below altitude 10° 23:58:35 10° 1° (N) 1,982 6.1 -24.1°
Sets 00:00:50 0° 5° (N) 2,887 7.0 -24.5°
